Location: Ergnies
(50.0854°N, 2.0375°E)
Time: 04:36:02
(UTC+00:00)

Okean 3 Rocket - Visible Passes

Search period start: 19 April 2026 00:00
Search period end: 29 April 2026 00:00
Orbit: 608 x 639 km, 82.5° (Epoch: 18 April)

Date Brightness Start Highest point End Pass type
(mag) Time Alt. Az. Time Alt. Az. Time Alt. Az.
19 Apr 5.7 03:03:00 10° N 03:06:51 28° ENE 03:10:43 10° SE visible
20 Apr 4.6 03:21:24 10° N 03:25:44 49° ENE 03:30:03 10° SSE visible
21 Apr 6.7 02:03:57 10° NE 02:05:48 12° ENE 02:07:39 10° E visible
21 Apr 3.6 03:40:02 10° N 03:44:29 87° E 03:48:57 10° S visible
22 Apr 6.2 02:21:32 10° NNE 02:24:51 20° ENE 02:28:10 10° ESE visible
22 Apr 3.8 03:58:49 10° NNW 04:03:08 52° W 04:07:28 10° S visible
23 Apr 5.3 02:39:45 10° N 02:43:48 33° ENE 02:47:51 10° SE visible
24 Apr 4.2 02:58:13 10° N 03:02:38 58° ENE 03:07:02 10° SSE visible
25 Apr 6.5 01:40:21 10° NNE 01:42:47 14° ENE 01:45:12 10° E visible
25 Apr 3.5 03:16:53 10° NNW 03:21:21 80° W 03:25:49 10° S visible
26 Apr 5.9 01:58:13 10° NNE 02:01:48 23° ENE 02:05:23 10° ESE visible
26 Apr 4.0 03:35:44 10° NNW 03:39:59 44° W 03:44:14 10° SSW visible
27 Apr 5.0 02:16:31 10° N 02:20:43 38° ENE 02:24:55 10° SE visible
27 Apr 4.7 03:54:49 10° NNW 03:58:30 26° W 04:02:11 10° SW visible
28 Apr 3.9 02:35:03 10° N 02:39:31 68° ENE 02:43:59 10° SSE visible
